Location: Ballingbuur
(53.0000°N, 5.7667°E)
Time: 05:09:58
(UTC+00:00)

USA 229 DEB - Pass Details

Date: 29 November 2020
Orbit: 965 x 1247 km, 63.4° (Epoch: 21 January)

Event Time Altitude Azimuth Distance (km) Brightness Sun altitude
Exits shadow 05:42:27 15° 315° (NW) 2,574 5.2 -14.6°
Maximum altitude 05:48:04 47° 24° (NNE) 1,479 4.5 -13.8°
Drops below altitude 10° 05:55:17 10° 97° (E) 3,134 7.5 -12.7°
Sets 05:58:15 0° 104° (ESE) 4,127 8.8 -12.3°
